Hourly Weather Roundup
Issued by NWS Central Illinois

Home | Current Version | Previous Version | Text Only | Print | Product List | Glossary On
Versions: 1 2 3 4 5 6 7 8 9 10 11 12 13 14 15 16 17 18 19 20 21 22 23 24 25 26 27 28 29 30 31 32 33 34 35 36 37 38 39 40 41 42 43 44 45 46 47 48 49 50
000
NZUS43 KILX 182010
HWRILX

Area Weather Roundup
National Weather Service Lincoln IL
200 PM CST SUN FEB 18 2018

NOTE:  "FAIR" indicates few or no clouds below 12,000 feet, with
       no sigificant weather and/or obstructions to visibility.


CITY           SKY/WX    TMP DP  RH WIND       PRES   REMARKS
Bloomington    FAIR      42  32  67 S26       30.08F WCI  32
Champaign      FAIR      45  33  63 SE17      30.13F
Danville       FAIR      43  32  67 SE14      30.13F
Decatur        FAIR      47  32  56 S17G25    30.12F
Effingham      FAIR      49  35  59 SE10G18   30.16F
Flora          FAIR      51  37  59 SE15      30.15F
Galesburg      FAIR      45  34  65 SE14G22   30.00F
Jacksonville   MOSUNNY   49  27  42 S21G30    30.05F
Lacon          FAIR      39  31  72 S14G23    30.05F WCI  31
Lawrenceville  FAIR      51  34  52 S13       30.19F
Litchfield     MOSUNNY   47  32  54 S16G24    30.09F
$$


CITY           SKY/WX    TMP DP  RH WIND       PRES   REMARKS
Lincoln        FAIR      47  35  62 S16G24    30.08F
Macomb         MOSUNNY   46  33  62 S22G28    30.01F
Mattoon        FAIR      46  32  58 S16G29    30.13F
Mt Carmel AP   FAIR      50  33  52 S15       30.18F
Olney-Noble AP FAIR      48  33  57 SE13G20   30.17F
Paris AP       FAIR      47  35  63 SE17      30.16F
Peoria         FAIR      45  34  65 S21G30    30.05F
Pontiac        FAIR      41  36  83 SE15      30.11F WCI  33
Rantoul        FAIR      44  36  72 SE16      30.13F
Robinson       FAIR      47  34  59 SE13      30.19F
Springfield    FAIR      50  33  52 S22       30.09F
Taylorville    FAIR      47  31  53 S17G26    30.10F
$$

...REGIONAL REPORTS...


CITY           SKY/WX    TMP DP  RH WIND       PRES   REMARKS
Chicago O`Hare PTSUNNY   35  26  69 S12       30.11F WCI  27
Kankakee       FAIR      35  30  83 SE10      30.15F WCI  27
Moline         FAIR      41  31  67 S18G26    29.97F WCI  32
Mount Sterling CLOUDY    47  30  51 S22G29    30.00F
Mount Vernon   FAIR      50  36  58 S10       30.15F
Pittsfield     MOSUNNY   50  31  47 S16       30.03F
Quincy         MOSUNNY   49  28  44 S22       29.97F
Rockford       CLOUDY    31  25  78 SE18      30.06F WCI  19
$$


CITY           SKY/WX    TMP DP  RH WIND       PRES   REMARKS
Burlington     CLOUDY    47  28  47 S16G24    29.94F
Cedar Rapids   FAIR      44  30  57 S23G33    29.84F
Des Moines     CLOUDY    53  25  33 S23G41    29.72F
Kirksville     CLOUDY    53  28  38 S25G31    29.90F
Ottumwa        CLOUDY    51  26  37 S26G36    29.84F
St Louis       CLOUDY    51  28  41 SE14G24   30.08F
$$


CITY           SKY/WX    TMP DP  RH WIND       PRES   REMARKS
Terre Haute    FAIR      46  34  62 SE14      30.18F
Evansville     FAIR      49  35  58 SE13G20   30.19F
Indianapolis   PTSUNNY   45  31  58 SE13      30.21F
Lafayette      FAIR      41  32  70 SE10      30.19F WCI  35
Madison        PTSUNNY   33  25  72 S23G30    29.98F WCI  21
Milwaukee      PTSUNNY   38  24  57 S18G28    30.09F WCI  28
$$





USA.gov is the U.S. government's official web portal to all federal, state and local government web resources and services.